Weather History for KJFZ - February, 2014

Change the Weather History Date:

Saturday, February 15, 2014

  Actual Average (KBLF) Record (KBLF)
Temperature  
Mean Temperature 29 °F 37 °F  
Max Temperature 38 °F 46 °F 72 °F (1990)
Min Temperature 20 °F 29 °F 1 °F (2015)
Degree Days  
Heating Degree Days 36 28  
Month to date heating degree days 434  
Since 1 July heating degree days 3154  
Cooling Degree Days 0 0  
Month to date cooling degree days 0  
Year to date cooling degree days 0  
Moisture  
Dew Point 22 °F    
Average Humidity 80    
Maximum Humidity 96    
Minimum Humidity 63    
Precipitation  
Precipitation 0.01 in 0.10 in 1.85 in (2003)
Month to date precipitation 1.44  
Year to date precipitation 4.34  
Snow  
Snow 0.00 in - - ()
Month to date snowfall  
Since 1 July snowfall  
Snow Depth -    
Sea Level Pressure  
Sea Level Pressure 29.82 in    
Wind  
Wind Speed 8 mph (WNW)    
Max Wind Speed 15 mph    
Max Gust Speed 24 mph    
Visibility 6 miles    
Events Rain , Snow    
T = Trace of Precipitation, MM = Missing Value Source: NWS Daily Summary

Daily Weather History Graph

Daily Weather History Graph

Search for Another Location

Airport or City:

Trip Planner

Search our weather history database for the weather conditions in past years. The results will help you decide how hot, cold, wet, or windy it might be!

Date:

Astronomy

Feb. 15, 2014 Rise Set
Actual Time 7:15 AM EST 6:07 PM EST
Civil Twilight 6:49 AM EST 6:33 PM EST
Nautical Twilight 6:18 AM EST 7:04 PM EST
Astronomical Twilight 5:48 AM EST 7:34 PM EST
Moon 7:03 PM EST (2/15) 7:15 AM EST (2/15)
Length of Visible Light 11h 44m
Length of Day
10h 51m
Full, 100% of the Moon is Illuminated
Feb 15
Full
Feb 22
Last Quarter
Mar 1
New
Mar 8
First Quarter
Mar 16
Full

Hourly Weather History & Observations

Time (EST) Temp. Windchill Dew Point Humidity Pressure Visibility Wind Dir Wind Speed Gust Speed Precip Events Conditions
12:15 AM 37.9 °F 33.5 °F 35.1 °F 89% 29.58 in 10.0 mi SW 5.8 mph - N/A   Overcast
12:35 AM 37.9 °F 32.7 °F 35.1 °F 89% 29.57 in 10.0 mi WSW 6.9 mph - N/A   Light Drizzle
12:55 AM 38.1 °F 32.9 °F 34.9 °F 88% 29.57 in 10.0 mi West 6.9 mph - N/A   Overcast
1:15 AM 37.8 °F 31.8 °F 35.1 °F 90% 29.57 in 10.0 mi West 8.1 mph - N/A   Overcast
1:35 AM 37.9 °F 31.5 °F 35.6 °F 91% 29.57 in 10.0 mi WSW 9.2 mph - N/A   Overcast
1:55 AM 37.8 °F 31.8 °F 35.6 °F 92% 29.56 in 7.0 mi SW 8.1 mph - N/A Rain Light Rain
2:15 AM 37.4 °F 33.8 °F 35.1 °F 91% 29.55 in 5.0 mi SSW 4.6 mph - N/A Snow Light Snow
2:35 AM 36.5 °F 31.0 °F 34.7 °F 93% 29.55 in 2.5 mi WSW 6.9 mph - 0.01 in Snow Light Snow
2:55 AM 36.5 °F 31.0 °F 34.7 °F 93% 29.54 in 3.0 mi SW 6.9 mph - 0.01 in Snow Light Snow
3:15 AM 36.5 °F 31.8 °F 34.7 °F 93% 29.54 in 4.0 mi SW 5.8 mph - N/A Snow Light Snow
3:35 AM 36.5 °F 29.2 °F 34.7 °F 93% 29.54 in 5.0 mi WSW 10.4 mph 16.1 mph N/A Snow Light Snow
3:55 AM 36.3 °F 30.8 °F 34.3 °F 93% 29.54 in 4.0 mi West 6.9 mph - N/A Snow Light Snow
4:15 AM 35.6 °F 27.5 °F 33.8 °F 93% 29.55 in 0.5 mi WNW 11.5 mph 17.3 mph N/A Snow Snow
4:35 AM 35.1 °F 28.6 °F 33.6 °F 94% 29.55 in 0.5 mi NW 8.1 mph - N/A Snow Light Snow
4:55 AM 34.9 °F 26.2 °F 33.1 °F 93% 29.57 in 2.0 mi NW 12.7 mph 17.3 mph N/A Snow Light Snow
5:15 AM 34.7 °F 26.4 °F 32.9 °F 93% 29.58 in 1.0 mi NW 11.5 mph 17.3 mph N/A Snow Light Snow
5:35 AM 33.3 °F 23.7 °F 32.0 °F 95% 29.60 in 1.2 mi NW 13.8 mph 21.9 mph N/A Snow Snow
5:55 AM 32.4 °F 24.0 °F 31.3 °F 96% 29.63 in 0.5 mi NW 10.4 mph - N/A Snow Snow
6:15 AM 31.6 °F 22.1 °F 29.5 °F 92% 29.64 in 3.0 mi WNW 12.7 mph 18.4 mph N/A Snow Light Snow
6:35 AM 31.1 °F 20.9 °F 28.9 °F 92% 29.66 in 1.5 mi NW 13.8 mph 18.4 mph N/A Snow Light Snow
6:55 AM 30.2 °F 20.8 °F 28.0 °F 92% 29.68 in 2.5 mi NW 11.5 mph 17.3 mph N/A Snow Light Snow
7:15 AM 29.8 °F 20.3 °F 27.0 °F 89% 29.70 in 7.0 mi NNW 11.5 mph 20.7 mph N/A   Overcast
7:35 AM 29.1 °F 18.9 °F 26.1 °F 88% 29.72 in 10.0 mi NW 12.7 mph 19.6 mph N/A   Overcast
7:55 AM 28.4 °F 17.5 °F 24.8 °F 86% 29.74 in 10.0 mi NNW 13.8 mph 21.9 mph N/A   Overcast
8:15 AM 27.5 °F 17.4 °F 24.8 °F 90% 29.76 in 1.5 mi NNW 11.5 mph 20.7 mph N/A Snow Light Snow
8:35 AM 26.6 °F 16.8 °F 23.9 °F 90% 29.78 in 1.8 mi NNW 10.4 mph 19.6 mph N/A Snow Light Snow
8:55 AM 25.7 °F 15.1 °F 22.8 °F 89% 29.80 in 0.8 mi NW 11.5 mph 20.7 mph N/A Snow Light Snow
9:15 AM 24.8 °F 14.0 °F 21.4 °F 87% 29.81 in 1.2 mi NW 11.5 mph 20.7 mph N/A Snow Light Snow
9:35 AM 23.5 °F 13.0 °F 20.1 °F 87% 29.83 in 0.5 mi NW 10.4 mph 23.0 mph N/A Snow Light Snow
9:55 AM 23.2 °F 12.0 °F 18.7 °F 83% 29.84 in 0.8 mi NW 11.5 mph 19.6 mph N/A Snow Light Snow
10:15 AM 22.6 °F 9.6 °F 18.3 °F 83% 29.84 in 0.5 mi NW 15.0 mph 20.7 mph N/A Snow Snow
10:35 AM 22.1 °F 9.5 °F 15.4 °F 76% 29.86 in 1.8 mi NW 13.8 mph 24.2 mph N/A Snow Light Snow
10:55 AM 22.6 °F 14.3 °F 16.3 °F 77% 29.87 in 1.8 mi NW 6.9 mph 16.1 mph N/A Snow Light Snow
11:15 AM 22.1 °F 9.5 °F 16.0 °F 77% 29.88 in 0.5 mi NW 13.8 mph 21.9 mph N/A Snow Light Snow
11:35 AM 22.1 °F 9.5 °F 14.0 °F 71% 29.89 in 2.5 mi NW 13.8 mph 21.9 mph N/A Snow Light Snow
11:55 AM 22.5 °F 10.5 °F 14.5 °F 72% 29.89 in 3.0 mi NW 12.7 mph - N/A Snow Light Snow
12:15 PM 23.0 °F 12.4 °F 15.1 °F 72% 29.89 in 3.0 mi NW 10.4 mph 16.1 mph N/A Snow Light Snow
12:35 PM 23.0 °F 14.7 °F 16.2 °F 75% 29.90 in 2.0 mi NW 6.9 mph - N/A Snow Light Snow
12:55 PM 23.2 °F 12.6 °F 15.3 °F 72% 29.89 in 1.5 mi WNW 10.4 mph 19.6 mph N/A Snow Light Snow
1:15 PM 23.2 °F 14.1 °F 15.8 °F 73% 29.91 in 2.5 mi WNW 8.1 mph 18.4 mph N/A Snow Light Snow
1:35 PM 23.4 °F 14.3 °F 15.1 °F 71% 29.91 in 2.5 mi WNW 8.1 mph 17.3 mph N/A Snow Light Snow
1:55 PM 24.3 °F 12.7 °F 15.3 °F 69% 29.92 in 4.0 mi West 12.7 mph 19.6 mph N/A Snow Light Snow
2:15 PM 23.9 °F 14.2 °F 16.0 °F 72% 29.92 in 3.0 mi WNW 9.2 mph 17.3 mph N/A Snow Light Snow
2:35 PM 24.6 °F 15.8 °F 14.9 °F 67% 29.93 in 7.0 mi WNW 8.1 mph 19.6 mph N/A Snow Light Snow
2:55 PM 25.3 °F 14.7 °F 14.2 °F 63% 29.93 in 10.0 mi NW 11.5 mph 18.4 mph N/A Snow Light Snow
3:15 PM 25.0 °F 15.5 °F 15.4 °F 67% 29.94 in 7.0 mi West 9.2 mph - N/A Snow Light Snow
3:35 PM 25.7 °F 17.1 °F 16.0 °F 67% 29.94 in 7.0 mi NW 8.1 mph - N/A Snow Light Snow
3:55 PM 24.8 °F 16.9 °F 14.7 °F 66% 29.94 in 10.0 mi West 6.9 mph - N/A   Overcast
4:15 PM 25.3 °F 16.7 °F 15.4 °F 66% 29.96 in 10.0 mi WNW 8.1 mph - N/A   Overcast
4:35 PM 26.1 °F 15.6 °F 15.6 °F 65% 29.97 in 10.0 mi West 11.5 mph 18.4 mph N/A   Overcast
4:55 PM 25.5 °F 18.7 °F 15.4 °F 66% 29.97 in 10.0 mi WNW 5.8 mph - N/A   Overcast
5:15 PM 25.3 °F 16.7 °F 14.9 °F 65% 29.98 in 10.0 mi WNW 8.1 mph - N/A   Overcast
5:35 PM 24.8 °F 16.9 °F 14.9 °F 66% 29.98 in 10.0 mi WNW 6.9 mph - N/A   Overcast
5:55 PM 24.6 °F 14.4 °F 14.9 °F 67% 29.99 in 10.0 mi West 10.4 mph 17.3 mph N/A   Overcast
6:15 PM 24.3 °F 14.6 °F 14.5 °F 67% 29.99 in 10.0 mi WNW 9.2 mph - N/A   Overcast
6:35 PM 23.9 °F 18.0 °F 14.9 °F 69% 29.99 in 10.0 mi West 4.6 mph - N/A   Mostly Cloudy
6:55 PM 23.9 °F 19.5 °F 14.9 °F 69% 30.00 in 10.0 mi WNW 3.5 mph - N/A   Scattered Clouds
7:15 PM 23.4 °F 16.2 °F 14.9 °F 70% 30.01 in 10.0 mi WNW 5.8 mph - N/A   Clear
7:35 PM 23.4 °F 16.2 °F 15.1 °F 71% 30.02 in 10.0 mi WNW 5.8 mph - N/A   Clear
7:55 PM 22.8 °F 18.2 °F 14.9 °F 72% 30.01 in 10.0 mi WNW 3.5 mph - N/A   Clear
8:15 PM 22.5 °F 16.3 °F 14.9 °F 73% 30.01 in 10.0 mi WNW 4.6 mph - N/A   Clear
8:35 PM 21.9 °F 15.7 °F 14.7 °F 74% 30.00 in 10.0 mi West 4.6 mph - N/A   Clear
8:55 PM 21.4 °F 15.1 °F 14.7 °F 75% 29.99 in 10.0 mi West 4.6 mph - N/A   Clear
9:15 PM 21.4 °F 15.1 °F 14.7 °F 75% 29.99 in 10.0 mi West 4.6 mph - N/A   Clear
9:35 PM 21.2 °F - 14.9 °F 77% 29.99 in 10.0 mi Calm Calm - N/A   Clear
9:55 PM 20.8 °F 16.0 °F 14.7 °F 77% 29.98 in 10.0 mi WSW 3.5 mph - N/A   Clear
10:15 PM 21.2 °F 16.4 °F 14.9 °F 77% 29.99 in 10.0 mi SW 3.5 mph - N/A   Clear
10:35 PM 20.8 °F - 14.9 °F 78% 29.99 in 10.0 mi Calm Calm - N/A   Clear
10:55 PM 21.0 °F 16.2 °F 14.9 °F 77% 29.99 in 10.0 mi West 3.5 mph - N/A   Clear
11:15 PM 20.7 °F - 14.7 °F 78% 29.99 in 10.0 mi Calm Calm - N/A   Clear
11:35 PM 21.0 °F - 15.1 °F 78% 29.98 in 10.0 mi Calm Calm - N/A   Clear
11:55 PM 21.0 °F 16.2 °F 15.1 °F 78% 29.98 in 10.0 mi NNW 3.5 mph - N/A   Clear